User: anonymous   Login
Location: Gradaro
(45.0833°N, 10.8833°E)
Time: 01:49:39
(UTC+00:00)
Language:

Aureole 2 Rocket - Orbit

View from above orbital plane
View from above orbital plane
View from above satellite
View from above satellite

Ground track
Ground track

The orbit data is extracted from the following two-line orbital elements,

1 07004U 73107B   21058.08747449  .00054174  26932-5  24947-3 0  9995
2 07004  73.9133 294.8948 0066297 176.7143 183.4536 15.80201981447237
Epoch (UTC): 27 February 2021 02:05:57
Eccentricity: 0.0066297
inclination: 73.9133°
perigee height: 285 km
apogee height: 374 km
right ascension of ascending node: 294.8948°
argument of perigee: 176.7143°
revolutions per day: 15.80201981
mean anomaly at epoch: 183.4536°
orbit number at epoch: 44723

The dashed part of the orbit path shows where the satellite is in the earth's shadow,  

DLR